Location: Absher
(46.5583°N, 107.9840°W)
Time: 07:18:25
(UTC+00:00)

STRAND 1 - Pass Details

Date: 06 April 2023
Orbit: 767 x 779 km, 98.4° (Epoch: 03 June)

Event Time Altitude Azimuth Distance (km) Brightness Sun altitude
Rises 03:56:14 0° 357° (N) 3,250 ? -21.3°
Reaches altitude 10° 03:59:50 10° 331° (NNW) 2,317 ? -21.8°
Maximum altitude 04:02:03 13° 305° (NW) 2,111 ? -22.1°
Drops below altitude 10° 04:04:17 10° 279° (W) 2,311 ? -22.4°
Sets 04:07:52 0° 252° (WSW) 3,233 ? -22.9°
